Location: London
(51.5074°N, 0.1278°W)
Time: 08:08:21
(UTC+00:00)

TIGRISAT - Pass Details

Date: 05 October 2020
Orbit: 606 x 688 km, 97.7° (Epoch: 30 October)

Event Time Altitude Azimuth Distance (km) Brightness Sun altitude
Rises 23:12:09 0° 358° (N) 2,992 ? -39.5°
Reaches altitude 10° 23:15:58 10° 325° (NW) 2,095 ? -39.8°
Maximum altitude 23:17:20 11° 308° (NW) 2,015 ? -39.9°
Enters shadow 23:17:33 11° 305° (NW) 2,017 ? -40.0°
